Location: Unspecified
(51.5147°N, 7.4673°E)
Time: 04:41:06
(UTC+01:00)

A-11 Canister half - Pass Details

Date: 17 February 2026
Orbit: 1512 x 1687 km, 47.2° (Epoch: 7 March)

Event Time Altitude Azimuth Distance (km) Brightness Sun altitude
Rises 04:26:04 0° 287° (WNW) 4,859 - -30.5°
Reaches altitude 10° 04:29:46 10° 277° (W) 3,843 - -30.0°
Maximum altitude 04:37:33 28° 224° (SW) 2,617 - -28.8°
Exits shadow 04:40:53 23° 193° (SSW) 2,852 10.1 -28.3°
Drops below altitude 10° 04:45:08 10° 169° (S) 3,721 10.9 -27.7°
Sets 04:48:41 0° 159° (SSE) 4,680 11.6 -27.2°
